Flag for U.S.A. Weather past 2 weeks in Concord, California, U.S.A.

Now
84 °F

Sunny.


Feels Like: 83 °F
Forecast: 63 / 82 °F
Wind: 8 mph from Southwest

Location: Buchanan Field

Current Time: Aug 1, 2015 at 3:57:12 PM

Latest Report: Aug 1, 2015 at 2:53 PM


Visibility: 10 mi

Pressure: 29.88 "Hg

Humidity: 37%

Dew point: 55 °F

Location of ConcordLocation

Historic Weather in Concord — Graph

°F

Concord temperature yesterday

Maximum temperature yesterday: 85 °F (at 1:53 PM)
Minimum temperature yesterday: 63 °F (at 2:53 AM)
Average temperature yesterday: 71 °F

Past Weeks' High & Low Weather Summary

 TemperatureHumidityPressure
High102 °F (Jul 28, 4:53 PM)81% (Jul 26, 4:53 AM)30.06 "Hg (Jul 26, 4:53 AM)
Low60 °F (Jul 24, 5:53 AM)12% (Jul 28, 1:53 PM)29.70 "Hg (Jul 17, 5:53 PM)
Average74 °F52%29.89 "Hg
* Reported Jul 17 1:53 PM — Aug 1 1:53 PM, Concord, Weather by CustomWeather, © 2015

Note: Actual official high and low records may vary slightly from our data, if they occured in-between our weather recording intervals... More about our weather records

Advertising

Concord weather history for previous 24 hours

 ConditionsComfort  
Time TempWeatherWind HumidityBarometerVisibility
1:53 PM
Sat, Aug 1
83 °FSunny.8 mph37%29.90 "Hg10 mi
12:53 PM79 °FSunny.8 mph44%29.92 "Hg10 mi
11:53 AM77 °FSunny.10 mph45%29.95 "Hg10 mi
10:53 AM73 °FSunny.16 mph51%29.95 "Hg10 mi
9:53 AM70 °FSunny.17 mph59%29.96 "Hg10 mi
8:53 AM69 °FScattered clouds.14 mph63%29.97 "Hg10 mi
7:53 AM66 °FScattered clouds.14 mph70%29.96 "Hg10 mi
6:53 AM64 °FClear.6 mph73%29.95 "Hg10 mi
5:53 AM63 °FClear.No wind75%29.93 "Hg10 mi
4:53 AM62 °FClear.3 mph78%29.91 "Hg10 mi
3:53 AM64 °FClear.7 mph73%29.90 "Hg10 mi
2:53 AM64 °FClear.12 mph75%29.91 "Hg10 mi
1:53 AM64 °FClear.14 mph75%29.91 "Hg10 mi
12:53 AM64 °FClear.14 mph75%29.92 "Hg10 mi
11:53 PM
Fri, Jul 31
65 °FClear.14 mph73%29.92 "Hg10 mi
10:53 PM65 °FClear.17 mph73%29.92 "Hg10 mi
9:53 PM66 °FClear.13 mph70%29.92 "Hg10 mi
8:53 PM67 °FSunny.21 mph68%29.91 "Hg10 mi
7:53 PM70 °FSunny.16 mph59%29.91 "Hg10 mi
6:53 PM75 °FSunny.13 mph45%29.89 "Hg10 mi
5:53 PM78 °FSunny.13 mph40%29.89 "Hg10 mi
4:53 PM81 °FSunny.17 mph37%29.89 "Hg10 mi
3:53 PM83 °FSunny.14 mph38%29.90 "Hg10 mi
Weather by CustomWeather, © 2015

See weather overviewHow to use our weather pages